DateTimeUTC,F1_A11,F1_S11,BsB_S11,BsG_S11,BsR_S11,BbsB_S11,BbsG_S11,BbsR_S11,BaB_A11,BaG_A11,BaR_A11,Tu_S11,T_S11,Uu_S11,U_S11,P_S11,T1_A11
2021-07-30T04:00:00Z,00040200,21000000,,,,,,,-000.15,-000.41,-000.15,18.0,25.3,01.2,00.8,0684.3,31.0
2021-07-30T04:01:00Z,00040200,21000000,,,,,,,0000.33,-000.13,0000.03,18.0,25.3,00.9,00.6,0684.3,31.0
2021-07-30T04:02:00Z,00040200,21000000,,,,,,,-000.29,-000.07,0000.04,18.0,25.3,00.9,00.6,0684.3,31.0
2021-07-30T04:03:00Z,00040200,61000000,,,,,,,-000.20,0000.10,-000.06,18.0,25.3,00.9,00.6,0684.3,31.1
2021-07-30T04:04:00Z,00040200,41000000,0001.72,0001.08,0000.28,0000.38,-000.07,0000.35,0000.47,0000.37,0000.03,18.4,25.2,01.0,00.7,0685.3,31.1
2021-07-30T04:05:00Z,00040200,01000000,0001.49,0001.05,0000.49,0000.00,0000.06,0000.28,0000.50,0000.45,0000.30,18.5,25.1,01.0,00.7,0685.4,31.1
2021-07-30T04:06:00Z,00040200,01000000,0001.64,0001.09,0000.56,0000.70,0000.19,0000.27,-000.24,-000.11,-000.01,18.5,25.1,01.2,00.8,0685.4,31.1
2021-07-30T04:07:00Z,00040200,01000000,0001.36,0000.96,0000.29,0000.92,0000.45,0000.28,-000.05,-000.06,-000.22,18.5,25.1,00.9,00.6,0685.4,31.1
2021-07-30T04:08:00Z,00040200,01000000,0002.17,0001.09,0000.62,0000.40,0000.14,0000.16,0000.58,0000.30,0000.63,18.4,25.1,01.0,00.6,0685.4,31.1
2021-07-30T04:09:00Z,00040200,01000000,0001.64,0001.17,0000.54,0000.36,0000.09,-000.05,0000.36,0000.33,0000.01,18.4,25.0,01.0,00.7,0685.4,31.0
2021-07-30T04:10:00Z,00040200,01000000,0001.72,0000.86,0000.45,0000.09,0000.14,0000.40,0000.03,-000.24,0000.09,18.4,25.0,01.0,00.7,0685.4,31.0
2021-07-30T04:11:00Z,00040200,01000000,0001.67,0001.21,0000.70,0000.15,0000.21,0000.24,0000.36,0000.50,0000.35,18.3,25.0,01.0,00.7,0685.4,31.0
2021-07-30T04:12:00Z,00040200,01000000,0000.96,0001.00,0000.36,0000.93,-000.00,0000.12,0000.03,0000.34,-000.19,18.3,24.9,01.0,00.7,0685.3,31.0
2021-07-30T04:13:00Z,00040200,01000000,0001.44,0000.92,0000.25,0000.66,-000.15,0000.01,-000.08,0000.11,0000.25,18.2,24.9,01.1,00.7,0685.3,31.0
2021-07-30T04:14:00Z,00040200,01000000,0001.11,0001.24,0000.39,0000.50,0000.26,-000.07,0000.84,0000.13,0000.50,18.2,24.9,01.0,00.7,0685.3,31.0
2021-07-30T04:15:00Z,00040200,01000000,0001.06,0000.86,0000.51,0000.41,0000.08,0000.07,0000.43,0000.51,0000.07,18.2,24.9,01.1,00.7,0685.3,31.0
2021-07-30T04:16:00Z,00040200,01000000,0000.72,0000.70,0000.41,-000.12,0000.20,-000.06,-000.10,0000.22,0000.09,18.2,24.9,01.2,00.8,0685.3,31.0
2021-07-30T04:17:00Z,00040200,01000000,0000.56,0000.54,0000.65,0000.34,0000.43,0000.10,0000.26,0000.36,0000.35,18.3,24.9,01.0,00.7,0685.2,31.0
2021-07-30T04:18:00Z,00040200,01000000,0000.94,0000.54,0000.69,0000.05,0000.20,0000.51,0000.32,-000.01,-000.07,18.3,24.9,01.1,00.7,0685.2,31.0
2021-07-30T04:19:00Z,00040200,01000000,0000.98,0001.09,0000.59,0000.47,0000.14,0000.29,0000.11,0000.19,0000.17,18.4,25.0,01.1,00.7,0685.2,31.1
2021-07-30T04:20:00Z,00040200,01000000,0001.72,0000.95,0000.48,0000.88,0000.19,0000.23,0000.37,0000.07,0000.52,18.5,25.0,01.1,00.7,0685.2,31.1
2021-07-30T04:21:00Z,00040200,01000000,0000.90,0000.81,0000.45,-000.34,0000.12,0000.04,0000.26,0000.36,-000.17,18.6,25.0,01.0,00.7,0685.2,31.1
2021-07-30T04:22:00Z,00040200,01000000,0001.47,0000.68,0000.45,0000.34,0000.51,-000.26,-000.02,-000.21,0000.09,18.6,25.0,01.1,00.7,0685.3,31.1
2021-07-30T04:23:00Z,00040200,01000000,0001.06,0000.86,0000.48,0000.16,0000.21,0000.07,0000.04,0000.33,-000.24,18.5,25.0,01.1,00.8,0685.3,31.0
2021-07-30T04:24:00Z,00040200,01000000,0000.78,0000.85,0000.10,0000.26,0000.29,0000.23,0000.58,0000.83,0000.74,18.5,25.0,01.1,00.8,0685.3,31.0
2021-07-30T04:25:00Z,00040200,01000000,0000.82,0000.77,0000.43,-000.10,0000.26,-000.02,0000.06,-000.11,0000.02,18.4,25.0,01.2,00.8,0685.2,31.0
2021-07-30T04:26:00Z,00040200,01000000,0000.64,0000.61,0000.37,0000.65,-000.13,0000.37,0000.16,0000.42,0000.22,18.4,24.9,01.2,00.8,0685.2,31.0
2021-07-30T04:27:00Z,00040200,01000000,0001.00,0001.01,0000.52,-000.42,-000.17,0000.08,0000.74,0000.27,0000.21,18.3,24.9,01.1,00.8,0685.2,31.0
2021-07-30T04:28:00Z,00040200,01000000,0001.48,0000.37,0000.25,0000.31,0000.25,-000.20,0000.01,0000.08,-000.03,18.3,24.9,01.3,00.8,0685.2,31.0
2021-07-30T04:29:00Z,00040200,01000000,0000.90,0001.13,0000.52,-000.04,0000.17,0000.28,0000.17,0000.21,0000.46,18.2,24.9,01.2,00.8,0685.2,31.0
2021-07-30T04:30:00Z,00040200,01000000,0001.46,0000.56,0000.66,-000.48,-000.19,0000.44,0000.44,0000.46,0000.16,18.2,24.8,01.3,00.8,0685.2,31.0
2021-07-30T04:31:00Z,00040200,01000000,0000.77,0000.75,0000.53,-000.19,0000.16,0000.37,0000.62,0000.30,0000.07,18.2,24.8,01.3,00.9,0685.2,31.0
2021-07-30T04:32:00Z,00040200,01000000,0001.45,0000.65,0000.17,0000.53,0000.31,-000.04,0000.14,0000.19,0000.42,18.3,24.8,01.4,00.9,0685.2,31.0
2021-07-30T04:33:00Z,00040200,01000000,0001.60,0000.79,0000.22,0000.33,0000.41,0000.26,0000.45,0000.20,0000.31,18.4,24.9,01.5,01.0,0685.2,31.0
2021-07-30T04:34:00Z,00040200,01000000,0000.83,0000.81,0000.53,0000.82,-000.01,0000.11,0000.41,0000.63,0000.39,18.5,24.9,01.4,00.9,0685.2,31.1
2021-07-30T04:35:00Z,00040200,01000000,0000.23,0000.57,0000.24,0000.15,-000.12,0000.20,0000.28,0000.30,0000.05,18.5,25.0,01.5,01.0,0685.2,31.1
2021-07-30T04:36:00Z,00040200,01000000,0000.61,0000.62,0000.68,0000.05,0000.14,0000.45,0000.64,0000.35,0000.38,18.6,25.0,01.4,01.0,0685.2,31.1
2021-07-30T04:37:00Z,00040200,01000000,0000.45,0000.88,0000.41,-000.07,-000.22,0000.04,-000.16,0000.32,0000.01,18.6,25.0,01.6,01.1,0685.2,31.1
2021-07-30T04:38:00Z,00040200,01000000,0001.15,0000.76,0000.48,0000.32,0000.18,0000.16,0000.52,-000.13,0000.44,18.5,25.0,01.6,01.1,0685.2,31.0
2021-07-30T04:39:00Z,00040200,01000000,0000.92,0000.68,0000.69,0000.57,0000.06,0000.26,0000.22,0000.39,0000.29,18.5,24.9,01.6,01.1,0685.2,31.0
2021-07-30T04:40:00Z,00040200,01000000,0001.22,0001.04,0000.72,0000.12,0000.02,0000.23,0000.39,0000.33,0000.29,18.4,24.9,01.6,01.1,0685.1,31.0
2021-07-30T04:41:00Z,00040200,01000000,0001.77,0001.03,0000.42,0000.09,0000.19,0000.61,0000.04,0000.07,0000.08,18.4,24.9,01.7,01.1,0685.2,31.0
2021-07-30T04:42:00Z,00040200,01000000,0000.82,0000.77,0000.43,-000.08,0000.20,0000.21,0000.56,0000.20,0000.33,18.3,24.9,01.8,01.2,0685.2,31.0
2021-07-30T04:43:00Z,00040200,01000000,0001.39,0000.88,0000.65,-000.07,0000.02,0000.24,0000.21,0000.60,-000.11,18.3,24.8,01.7,01.1,0685.1,31.0
2021-07-30T04:44:00Z,00040200,01000000,0001.24,0000.57,0000.41,0000.21,0000.07,0000.27,-000.02,0000.10,0000.16,18.2,24.8,01.7,01.2,0685.1,31.0
2021-07-30T04:45:00Z,00040200,01000000,0001.41,0000.79,0000.16,0000.37,0000.27,0000.29,0000.53,0000.72,0000.09,18.2,24.8,01.8,01.2,0685.1,31.0
2021-07-30T04:46:00Z,00040200,01000000,0001.43,0000.78,0000.63,0000.20,0000.11,-000.30,0000.52,-000.19,0000.58,18.2,24.8,01.7,01.2,0685.1,31.0
2021-07-30T04:47:00Z,00040200,01000000,0001.47,0000.73,0000.40,0000.41,-000.06,-000.08,-000.18,0000.20,-000.17,18.3,24.8,01.7,01.2,0685.1,31.0
2021-07-30T04:48:00Z,00040200,01000000,0000.37,0000.87,0000.86,-000.57,0000.09,0000.19,0000.33,-000.02,0000.15,18.3,24.8,01.8,01.2,0685.1,31.1
2021-07-30T04:49:00Z,00040200,01000000,0001.29,0000.86,0000.26,0000.34,0000.63,-000.05,-000.18,0000.39,0000.20,18.4,24.9,01.8,01.2,0685.1,31.0
2021-07-30T04:50:00Z,00040200,01000000,0001.03,0000.70,0000.70,0000.03,0000.20,0000.15,0000.78,0000.25,0000.47,18.5,24.9,01.8,01.2,0685.1,31.1
2021-07-30T04:51:00Z,00040200,01000000,0001.04,0001.20,0000.26,0000.35,0000.03,0000.20,-000.48,-000.07,-000.34,18.5,24.9,01.7,01.2,0685.2,31.1
2021-07-30T04:52:00Z,00040200,01000000,0001.54,0000.52,0000.44,-000.07,0000.33,0000.10,0000.55,0000.17,0000.26,18.6,24.9,01.7,01.2,0685.2,31.1
2021-07-30T04:53:00Z,00040200,01000000,0001.74,0000.95,0000.45,0000.04,0000.33,0000.19,0000.01,0000.18,0000.09,18.5,24.9,01.7,01.1,0685.2,31.1
2021-07-30T04:54:00Z,00040200,01000000,0001.38,0000.96,0000.67,0000.86,0000.34,0000.36,-000.10,0000.02,-000.17,18.5,24.9,01.7,01.2,0685.2,31.0
2021-07-30T04:55:00Z,00040200,01000000,0001.08,0000.96,0000.40,0000.42,0000.09,-000.05,0000.50,0000.48,0000.19,18.4,24.9,01.7,01.1,0685.2,31.0
2021-07-30T04:56:00Z,00040200,01000000,0000.79,0000.78,0000.88,0000.32,0000.23,0000.82,0000.27,-000.21,0000.10,18.4,24.9,01.7,01.1,0685.2,31.0
2021-07-30T04:57:00Z,00040200,40000000,,,,,,,-000.11,-000.01,0000.09,18.4,24.9,01.5,01.0,0685.2,31.0
2021-07-30T04:58:00Z,00040200,61000000,,,,,,,-000.13,0000.11,-000.16,18.0,25.0,01.5,01.0,0684.2,31.0
2021-07-30T04:59:00Z,00040200,20000000,,,,,,,0000.33,-000.03,0000.23,18.0,25.1,01.5,01.0,0684.2,31.0
